User: anonymous   Login
Location: Unspecified
(0.0000°N, 0.0000°E)
Time: 00:14:09
(UTC+00:00)
Language:

Tiros 1 - Orbit

View from above orbital plane
View from above orbital plane
View from above satellite
View from above satellite

Ground track
Ground track

The orbit data is extracted from the following two-line orbital elements,

1 00029U 60002B   15062.49469696  .00000862  00000-0  16134-3 0  9990
2 00029 048.3800 067.9688 0024870 246.5983 113.2313 14.73667741933474
Epoch (UTC): 03 March 2015 11:52:21
Eccentricity: 0.0024870
inclination: 48.3800°
perigee height: 632 km
apogee height: 667 km
right ascension of ascending node: 67.9688°
argument of perigee: 246.5983°
revolutions per day: 14.73667741
mean anomaly at epoch: 113.2313°
orbit number at epoch: 93347

The dashed part of the orbit path shows where the satellite is in the earth's shadow,  

DLR